Change the Weather History Date:

Friday, February 1, 2013

  Actual Average Record
Temperature  
Mean Temperature 60 °F -  
Max Temperature 67 °F 61 °F 75 °F (2014)
Min Temperature 50 °F 46 °F 35 °F (2008)
Degree Days  
Heating Degree Days 6    
Growing Degree Days 10 (Base 50)    
Moisture  
Dew Point 41 °F    
Average Humidity 53    
Maximum Humidity 81    
Minimum Humidity 37    
Precipitation  
Precipitation 0.00 in - - ()
Sea Level Pressure  
Sea Level Pressure 30.36 in    
Wind  
Wind Speed 3 mph (East)    
Max Wind Speed 9 mph    
Max Gust Speed 17 mph    
Visibility 10 miles    
Events      
Averages and records for this station are not official NWS values.
T = Trace of Precipitation, MM = Missing Value Source: NWS Daily Summary

Daily Weather History Graph

Daily Weather History Graph

Search for Another Location

Airport or City:

Trip Planner

Search our weather history database for the weather conditions in past years. The results will help you decide how hot, cold, wet, or windy it might be!

Date:

Astronomy

Feb. 01, 2013 Rise Set
Actual Time 6:49 AM CST 5:37 PM CST
Civil Twilight 6:24 AM CST 6:02 PM CST
Nautical Twilight 5:56 AM CST 6:31 PM CST
Astronomical Twilight 5:28 AM CST 6:59 PM CST
Moon 11:12 PM CST (2/1) 9:52 AM CST (2/1)
Length of Visible Light 11h 37m
Length of Day
10h 47m
Waning Gibbous, 70% of the Moon is Illuminated
Feb 1
Waning Gibbous
Feb 3
Last Quarter
Feb 10
New
Feb 17
First Quarter
Feb 25
Full

Hourly Weather History & Observations

Time (CST) Temp. Dew Point Humidity Pressure Visibility Wind Dir Wind Speed Gust Speed Precip Events Conditions
12:55 AM - - N/A% 30.36 in - North - - N/A   Unknown
1:55 AM - - N/A% 30.36 in - North - - N/A   Unknown
2:55 AM - - N/A% 30.35 in - North - - N/A   Unknown
3:55 AM - - N/A% 30.35 in - North - - N/A   Unknown
4:55 AM - - N/A% 30.35 in - North - - N/A   Unknown
5:55 AM - - N/A% 30.38 in - North - - N/A   Unknown
6:11 AM 53.6 °F 41.0 °F 62% 30.38 in 10.0 mi Calm Calm - N/A   Overcast
6:12 AM 53.6 °F 41.0 °F 62% 30.37 in 10.0 mi Calm Calm - N/A   Overcast
6:55 AM 52.7 °F 40.1 °F 62% 30.38 in 10.0 mi Calm Calm - N/A   Overcast
7:55 AM 53.1 °F 39.7 °F 61% 30.40 in 10.0 mi Calm Calm - N/A   Overcast
8:55 AM 59.2 °F 41.2 °F 51% 30.40 in 10.0 mi Variable 3.5 mph - N/A   Mostly Cloudy
9:55 AM 59.0 °F 41.0 °F 51% 30.41 in 10.0 mi Variable 3.5 mph - N/A   Mostly Cloudy
10:55 AM 59.2 °F 38.3 °F 46% 30.41 in 10.0 mi NE 9.2 mph - N/A   Mostly Cloudy
11:55 AM 59.4 °F 34.7 °F 40% 30.40 in 10.0 mi NNE 8.1 mph - N/A   Scattered Clouds
12:55 PM 62.6 °F 35.6 °F 37% 30.36 in 10.0 mi NNE 8.1 mph 17.3 mph N/A   Scattered Clouds
1:55 PM 67.1 °F 39.9 °F 37% 30.35 in 10.0 mi Variable 3.5 mph - N/A   Partly Cloudy
2:55 PM 66.9 °F 41.5 °F 40% 30.34 in 10.0 mi East 6.9 mph - N/A   Partly Cloudy
3:55 PM 65.8 °F 41.9 °F 42% 30.33 in 10.0 mi ESE 8.1 mph - N/A   Partly Cloudy
4:55 PM 63.9 °F 40.3 °F 42% 30.33 in 10.0 mi Variable 4.6 mph - N/A   Partly Cloudy
5:55 PM 61.7 °F 43.0 °F 50% 30.34 in 10.0 mi SE 8.1 mph - N/A   Partly Cloudy
6:55 PM 59.9 °F 44.6 °F 57% 30.34 in 10.0 mi Variable 3.5 mph - N/A   Clear
7:55 PM 59.4 °F 45.3 °F 60% 30.35 in 10.0 mi SE 5.8 mph - N/A   Clear
8:55 PM 57.7 °F 45.5 °F 64% 30.35 in 10.0 mi ESE 4.6 mph - N/A   Clear
9:55 PM 54.3 °F 44.6 °F 70% 30.35 in 10.0 mi SE 5.8 mph - N/A   Clear
10:55 PM 50.5 °F 45.0 °F 81% 30.35 in 10.0 mi ESE 4.6 mph - N/A   Clear
11:55 PM - - N/A% 30.35 in - North - - N/A   Unknown